[[{"header":{"parameterUnit":"m.s-1","parameterCategory":1,"la1":30.2991,"la2":30.254,"lo1":-89.0895,"lo2":-89.0444,"dy":0.0017,"dx":0.0017,"nx":28,"ny":28,"refTime":"2025-09-12T03:00:00:Z","depth":0,"parameterNumber":2,"parameterNumberName":"U-component_of_WINDS"},"data":[0,0,0,0,0,0,0,0,0,0,0,0,0,0,0,0,0,0,0,0,0,0,0,0,0,0,0,0,0,0,0,0,0,0,0,0,0,0,0,0,0,0,0,0,0,0,0,0,0,0,0,0,0,0,0,0,0,0,-1.1414,-1.1415,0,-1.1473,-1.1474,-1.1474,-1.1432,-1.143,-1.1428,-1.1426,-1.1488,-1.1491,-1.1495,0,0,0,0,0,0,0,0,0,0,0,0,0,-1.1266,-1.1269,-1.1414,-1.1415,-1.1416,-1.1473,-1.1474,-1.1475,-1.1432,-1.143,-1.1428,-1.1425,-1.1487,-1.1491,-1.1495,0,0,0,0,0,0,0,0,0,0,0,0,0,-1.1328,-1.127,-1.1414,-1.1401,-1.1401,-1.1473,-1.1474,-1.1475,-1.1433,-1.143,-1.1427,-1.1424,-1.1485,-1.149,-1.1495,-1.1583,0,0,-1.1511,-1.1513,0,0,0,0,0,0,0,0,-1.1325,-1.1334,-1.1403,-1.1402,-1.1402,-1.1442,-1.1444,-1.1511,-1.1433,-1.1421,-1.1426,-1.1423,-1.1475,-1.1481,-1.1498,-1.1586,-1.1589,-1.1511,-1.1515,-1.1517,-1.1518,0,0,0,0,0,0,0,-1.1321,-1.1331,-1.1437,-1.1404,-1.1403,-1.1393,-1.1399,-1.1457,-1.1463,-1.1421,-1.1419,-1.1426,-1.1474,-1.1493,-1.1499,-1.159,-1.1511,-1.1516,-1.1519,-1.1521,-1.1754,-1.1757,0,0,0,0,0,0,-1.1317,-1.1328,-1.1436,-1.1439,-1.1356,-1.1398,-1.1404,-1.1432,-1.1462,-1.1464,-1.1428,-1.1424,-1.1486,-1.1493,-1.1501,-1.1607,-1.1517,-1.1521,-1.1524,-1.1751,-1.1754,-1.1758,0,0,0,0,0,0,-1.1314,-1.1327,-1.1433,-1.1383,-1.1395,-1.1404,-1.1435,-1.1435,-1.1454,-1.1467,-1.1468,-1.1447,-1.1484,-1.1494,-1.1563,-1.1608,-1.1524,-1.1528,-1.1747,-1.1752,-1.1756,-1.1819,0,0,0,0,0,0,-1.131,-1.1327,-1.136,-1.1384,-1.1398,-1.1494,-1.1438,-1.1438,-1.1462,-1.1457,-1.1485,-1.1487,-1.1483,-1.1556,-1.1568,-1.1614,-1.1532,-1.1743,-1.1749,-1.1755,-1.1813,-1.1825,-1.1836,0,0,0,0,0,-1.1305,-1.1376,-1.1362,-1.1375,-1.144,-1.1497,-1.1505,-1.1499,-1.1466,-1.15,-1.1509,-1.1486,-1.1601,-1.1563,-1.1577,-1.1625,-1.174,-1.1747,-1.1754,-1.1808,-1.1823,-1.1835,0,0,0,0,0,0,-1.1358,-1.1378,-1.1364,-1.1444,-1.1469,-1.149,-1.1532,-1.1515,-1.155,-1.1544,-1.1534,-1.1541,-1.1614,-1.1626,-1.1584,-1.1712,-1.1665,-1.1676,-1.1701,-1.1716,-1.1727,-1.1723,-1.1537,0,0,0,0,0,-1.1378,-1.1422,-1.1438,-1.1507,-1.1521,-1.1524,-1.1549,-1.1542,-1.1567,-1.1578,-1.1592,-1.1618,-1.166,-1.1688,-1.1728,-1.1814,-1.1819,-1.1853,-1.1865,-1.1874,-1.1883,-1.193,-1.1945,-1.1781,-1.1781,-1.1781,0,0,-1.1422,-1.1439,-1.1467,-1.1518,-1.1537,-1.1583,-1.1534,-1.1585,-1.1619,-1.1586,-1.1652,-1.1663,-1.1692,-1.177,-1.1805,-1.1782,-1.193,-1.1883,-1.189,-1.1894,-1.1939,-1.1954,-1.1968,-1.1786,-1.1785,-1.1784,0,0,-1.1525,-1.1542,-1.1602,-1.1621,-1.165,-1.1652,-1.1666,-1.1689,-1.1695,-1.1762,-1.1738,-1.1778,-1.1851,-1.1873,-1.1893,-1.2004,-1.1985,-1.2017,-1.2077,-1.2123,-1.2136,-1.2147,-1.2188,-1.2203,-1.2026,-1.2026,-1.2026,0,-1.1576,-1.1645,-1.1635,-1.1688,-1.1711,-1.1682,-1.1743,-1.1762,-1.1803,-1.182,-1.1793,-1.1884,-1.1901,-1.1984,-1.2011,-1.2028,-1.2045,-1.2015,-1.2135,-1.2146,-1.2157,-1.2195,-1.2211,-1.203,-1.203,-1.2029,-1.2029,0,-1.1706,-1.1754,-1.1799,-1.1838,-1.1866,-1.1923,-1.1922,-1.1952,-1.1942,-1.1946,-1.2014,-1.2034,-1.2077,-1.2096,-1.2087,-1.2178,-1.2163,-1.2136,-1.2089,-1.2177,-1.2213,-1.2227,-1.2036,-1.2034,-1.2033,-1.2032,0,0,-1.1846,-1.1878,-1.1895,-1.1913,-1.1941,-1.1979,-1.2034,-1.2075,-1.2101,-1.213,-1.2176,-1.2238,-1.2213,-1.2237,-1.2229,-1.2269,-1.2357,-1.2237,-1.2238,-1.226,-1.2459,-1.2481,-1.2498,-1.2343,-1.2346,-1.2348,-1.2457,0,-1.1952,-1.2048,-1.204,-1.2131,-1.2175,-1.2148,-1.2196,-1.2219,-1.2225,-1.2264,-1.227,-1.2314,-1.2277,-1.2291,-1.2329,-1.2338,-1.2397,-1.233,-1.2388,-1.239,-1.2383,-1.2516,-1.2539,-1.2641,-1.2471,-1.2474,-1.2475,0,-1.2088,-1.2121,-1.2217,-1.2239,-1.2257,-1.2301,-1.2338,-1.2375,-1.2401,-1.2402,-1.2428,-1.2414,-1.247,-1.2421,-1.2498,-1.2453,-1.2475,-1.2483,-1.2487,-1.2493,-1.2439,-1.2528,-1.2673,-1.2689,-1.2497,-1.2495,-1.2494,0,-1.2182,-1.225,-1.2316,-1.2331,-1.2359,-1.239,-1.2403,-1.2426,-1.2451,-1.2484,-1.25,-1.2539,-1.2561,-1.2592,-1.2589,-1.2553,-1.2668,-1.2618,-1.2671,-1.2671,-1.2698,-1.2697,-1.2851,-1.271,-1.271,-1.271,-1.271,0,-1.2302,-1.2362,-1.2358,-1.2399,-1.2465,-1.2456,-1.2521,-1.2531,-1.2551,-1.2593,-1.2572,-1.2612,-1.2605,-1.2645,-1.2643,-1.2708,-1.2717,-1.2721,-1.272,-1.2724,-1.2723,-1.274,-1.2733,-1.2714,-1.2713,-1.2712,-1.2711,0,-1.2419,-1.2419,-1.2489,-1.2509,-1.2515,-1.2563,-1.258,-1.2619,-1.2622,-1.2676,-1.2688,-1.2693,-1.274,-1.2739,-1.2792,-1.279,-1.287,-1.286,-1.2862,-1.286,-1.2914,-1.2909,-1.3085,-1.3108,-1.2951,-1.2953,-1.2954,0,-1.2496,-1.2541,-1.2566,-1.2592,-1.2607,-1.265,-1.2676,-1.2668,-1.2696,-1.2728,-1.2763,-1.2807,-1.2842,-1.2917,-1.2926,-1.2967,-1.2958,-1.3017,-1.2964,-1.2967,-1.2961,-1.2959,-1.2964,-1.3028,-1.303,-1.3031,-1.3032,0,-1.2634,-1.2631,-1.2669,-1.2707,-1.2738,-1.2768,-1.2795,-1.2818,-1.2813,-1.2845,-1.2892,-1.2919,-1.2973,-1.3017,-1.3056,-1.3069,-1.3051,-1.3048,-1.3063,-1.3068,-1.3068,-1.307,-1.2891,-1.3045,-1.3044,-1.3043,-1.3042,-1.3042,-1.2734,-1.2773,-1.2796,-1.2839,-1.2858,-1.2884,-1.2922,-1.2929,-1.2968,-1.3011,-1.3003,-1.3056,-1.308,-1.313,-1.3147,-1.3188,-1.3168,-1.3189,-1.3194,-1.32,-1.3206,-1.306,-1.3195,-1.3195,-1.3194,-1.3194,-1.3194,0,-1.2871,-1.2885,-1.2924,-1.2963,-1.2996,-1.2974,-1.3003,-1.3033,-1.308,-1.3104,-1.3138,-1.3192,-1.3235,-1.3247,-1.3288,-1.3319,-1.3311,-1.333,-1.3328,-1.3332,-1.3222,-1.3206,-1.3335,-1.3335,-1.3335,-1.3335,-1.3335,-1.3335,-1.2947,-1.3012,-1.3013,-1.3087,-1.31,-1.3151,-1.317,-1.3193,-1.3212,-1.3273,-1.3309,-1.3316,-1.3335,-1.3377,-1.3416,-1.3418,-1.3435,-1.3457,-1.3457,-1.3354,-1.334,-1.3326,-1.3311,-1.3461,-1.3461,-1.3563,-1.3564,-1.3565]},{"header":{"parameterUnit":"m.s-1","parameterCategory":1,"la1":30.2991,"la2":30.254,"lo1":-89.0895,"lo2":-89.0444,"dy":0.0017,"dx":0.0017,"nx":28,"ny":28,"refTime":"2025-09-12T03:00:00:Z","depth":0,"parameterNumber":3,"parameterNumberName":"V-component_of_WINDS"},"data":[0,0,0,0,0,0,0,0,0,0,0,0,0,0,0,0,0,0,0,0,0,0,0,0,0,0,0,0,0,0,0,0,0,0,0,0,0,0,0,0,0,0,0,0,0,0,0,0,0,0,0,0,0,0,0,0,0,0,-3.2988,-3.2988,0,-3.3041,-3.3041,-3.3042,-3.2995,-3.2993,-3.2991,-3.2989,-3.3039,-3.3042,-3.3045,0,0,0,0,0,0,0,0,0,0,0,0,0,-3.284,-3.2843,-3.2987,-3.2988,-3.2989,-3.3041,-3.3041,-3.3042,-3.2995,-3.2993,-3.299,-3.2988,-3.3038,-3.3042,-3.3045,0,0,0,0,0,0,0,0,0,0,0,0,0,-3.29,-3.2844,-3.2987,-3.2972,-3.2971,-3.304,-3.3041,-3.3042,-3.2995,-3.2992,-3.299,-3.2987,-3.3037,-3.3041,-3.3046,-3.3133,0,0,-3.306,-3.3062,0,0,0,0,0,0,0,0,-3.2897,-3.2905,-3.2973,-3.2973,-3.2972,-3.3008,-3.3008,-3.3072,-3.2996,-3.2986,-3.2989,-3.2985,-3.3031,-3.3036,-3.3052,-3.3135,-3.3137,-3.3061,-3.3063,-3.3065,-3.3067,0,0,0,0,0,0,0,-3.2892,-3.2903,-3.3008,-3.2974,-3.2974,-3.296,-3.2966,-3.302,-3.3024,-3.2987,-3.2983,-3.299,-3.303,-3.3048,-3.3053,-3.3138,-3.306,-3.3065,-3.3068,-3.3069,-3.3294,-3.3297,0,0,0,0,0,0,-3.2891,-3.29,-3.3007,-3.301,-3.2927,-3.2965,-3.2971,-3.2999,-3.3023,-3.3024,-3.2993,-3.2988,-3.3041,-3.3047,-3.3054,-3.3157,-3.3065,-3.307,-3.3073,-3.3291,-3.3294,-3.3298,0,0,0,0,0,0,-3.2888,-3.2901,-3.3005,-3.2954,-3.2966,-3.2971,-3.3003,-3.3002,-3.302,-3.3028,-3.3028,-3.3011,-3.3039,-3.3048,-3.3114,-3.3158,-3.3072,-3.3076,-3.3287,-3.3292,-3.3296,-3.3363,0,0,0,0,0,0,-3.2884,-3.29,-3.2934,-3.2955,-3.2969,-3.3065,-3.3006,-3.3005,-3.3028,-3.3023,-3.3044,-3.3045,-3.3037,-3.3107,-3.3118,-3.3163,-3.308,-3.3283,-3.3289,-3.3295,-3.3357,-3.337,-3.3381,0,0,0,0,0,-3.2879,-3.295,-3.2936,-3.2949,-3.3012,-3.3067,-3.3075,-3.3066,-3.3032,-3.3066,-3.3071,-3.3045,-3.3152,-3.3114,-3.3126,-3.3173,-3.328,-3.3287,-3.3294,-3.3352,-3.3367,-3.338,0,0,0,0,0,0,-3.2932,-3.2952,-3.2937,-3.3018,-3.3041,-3.3059,-3.3101,-3.3082,-3.3115,-3.3108,-3.3093,-3.3099,-3.3168,-3.3177,-3.3135,-3.3258,-3.321,-3.322,-3.325,-3.3264,-3.3276,-3.3272,-3.3084,0,0,0,0,0,-3.2954,-3.2998,-3.3013,-3.3083,-3.3095,-3.3097,-3.312,-3.3111,-3.3134,-3.3143,-3.3153,-3.3176,-3.3214,-3.324,-3.3276,-3.3358,-3.3362,-3.3396,-3.3408,-3.3418,-3.3426,-3.347,-3.3485,-3.3321,-3.3321,-3.3321,0,0,-3.2998,-3.3015,-3.3043,-3.3094,-3.3111,-3.3156,-3.3105,-3.3155,-3.3188,-3.315,-3.3214,-3.3222,-3.3246,-3.332,-3.3354,-3.333,-3.3473,-3.3427,-3.3434,-3.3438,-3.3479,-3.3495,-3.3508,-3.3326,-3.3325,-3.3324,0,0,-3.3102,-3.3119,-3.3179,-3.3198,-3.3225,-3.3225,-3.324,-3.3261,-3.3265,-3.3329,-3.3302,-3.334,-3.3406,-3.3425,-3.3442,-3.3553,-3.353,-3.3565,-3.3626,-3.3669,-3.3682,-3.3693,-3.3732,-3.3747,-3.3574,-3.3574,-3.3574,0,-3.3153,-3.3222,-3.3212,-3.3265,-3.3287,-3.3257,-3.3316,-3.3334,-3.3371,-3.3387,-3.336,-3.3443,-3.3457,-3.3535,-3.3563,-3.3578,-3.3593,-3.3563,-3.3681,-3.3693,-3.3703,-3.374,-3.3755,-3.3578,-3.3578,-3.3577,-3.3577,0,-3.3283,-3.3331,-3.3376,-3.3414,-3.3441,-3.3497,-3.3495,-3.3523,-3.3512,-3.3514,-3.3579,-3.3595,-3.3633,-3.3651,-3.364,-3.3728,-3.3712,-3.3684,-3.3635,-3.3723,-3.3757,-3.3772,-3.3584,-3.3582,-3.3581,-3.358,0,0,-3.3422,-3.3455,-3.3471,-3.3488,-3.3516,-3.3552,-3.3606,-3.3645,-3.367,-3.3696,-3.374,-3.3797,-3.3771,-3.3791,-3.3782,-3.3819,-3.3906,-3.3786,-3.3786,-3.3808,-3.4003,-3.4024,-3.4041,-3.3891,-3.3893,-3.3895,-3.4001,0,-3.3527,-3.3622,-3.3615,-3.3704,-3.3748,-3.372,-3.3766,-3.3788,-3.3792,-3.3828,-3.3831,-3.3872,-3.3835,-3.3847,-3.3883,-3.3888,-3.3945,-3.388,-3.393,-3.3932,-3.3925,-3.4059,-3.4081,-3.418,-3.4014,-3.4017,-3.4018,0,-3.3662,-3.3695,-3.3789,-3.381,-3.3828,-3.3871,-3.3906,-3.3941,-3.3964,-3.3964,-3.3987,-3.3971,-3.4024,-3.3975,-3.4046,-3.4003,-3.4022,-3.4028,-3.4031,-3.4035,-3.398,-3.4066,-3.4211,-3.4226,-3.4039,-3.4038,-3.4036,0,-3.3753,-3.3821,-3.3886,-3.3901,-3.3928,-3.3958,-3.397,-3.3991,-3.4015,-3.4045,-3.406,-3.4095,-3.4114,-3.4141,-3.4135,-3.41,-3.4208,-3.4158,-3.4208,-3.4209,-3.4232,-3.4231,-3.4383,-3.4246,-3.4246,-3.4245,-3.4245,0,-3.3871,-3.393,-3.3928,-3.3968,-3.4032,-3.4023,-3.4086,-3.4094,-3.4113,-3.4153,-3.413,-3.4168,-3.4157,-3.4193,-3.4188,-3.4248,-3.4257,-3.4258,-3.4255,-3.426,-3.426,-3.4272,-3.4265,-3.4249,-3.4248,-3.4248,-3.4247,0,-3.3984,-3.3985,-3.4054,-3.4074,-3.4081,-3.4127,-3.4143,-3.418,-3.4182,-3.4233,-3.4245,-3.4247,-3.429,-3.4286,-3.4333,-3.4329,-3.4403,-3.4393,-3.4396,-3.4394,-3.4444,-3.4439,-3.4609,-3.4631,-3.448,-3.4482,-3.4483,0,-3.4059,-3.4104,-3.4129,-3.4155,-3.417,-3.4212,-3.4236,-3.4228,-3.4254,-3.4284,-3.4317,-3.4358,-3.439,-3.4458,-3.4463,-3.4499,-3.4489,-3.4546,-3.4494,-3.4497,-3.4489,-3.4487,-3.4491,-3.4556,-3.4558,-3.4559,-3.456,0,-3.4192,-3.419,-3.4228,-3.4266,-3.4296,-3.4325,-3.4351,-3.4373,-3.4368,-3.4398,-3.4442,-3.4467,-3.4515,-3.4555,-3.4589,-3.4599,-3.4579,-3.4577,-3.459,-3.4595,-3.4595,-3.4595,-3.4424,-3.4573,-3.4572,-3.4571,-3.457,-3.4569,-3.4288,-3.4326,-3.435,-3.4392,-3.4412,-3.4437,-3.4473,-3.448,-3.4517,-3.4557,-3.4549,-3.4598,-3.4619,-3.4663,-3.4677,-3.4714,-3.4693,-3.4712,-3.4717,-3.4722,-3.4728,-3.4589,-3.472,-3.4719,-3.4719,-3.4719,-3.4718,0,-3.4419,-3.4433,-3.4472,-3.4511,-3.4544,-3.4523,-3.4551,-3.4579,-3.4623,-3.4646,-3.4678,-3.4728,-3.4766,-3.4775,-3.4812,-3.484,-3.4831,-3.4849,-3.4847,-3.485,-3.4745,-3.4729,-3.4856,-3.4856,-3.4856,-3.4856,-3.4856,-3.4856,-3.4491,-3.4555,-3.4557,-3.4629,-3.4642,-3.4692,-3.4709,-3.4732,-3.475,-3.4807,-3.484,-3.4845,-3.4862,-3.49,-3.4934,-3.4935,-3.4949,-3.4972,-3.4969,-3.4871,-3.4857,-3.4844,-3.483,-3.4975,-3.4975,-3.5071,-3.5072,-3.5073]}]]